Find Starlink 11246

NORAD ID: 60932 Int'l Des: 2024-155 Owner: SPXS Country: US Constellation: starlink operational
LEOCIRCULAR

Live Position

Loading 3D Globe...

About Starlink 11246

Description loading...

Upcoming Passes

Passes for default location (London). Set your location on the main map for personalized predictions.

Altitude History

Loading altitude history...

Two-Line Element Set

1 60932U 24155J 26127.95595911 .00004235 00000-0 39788-4 0 9992
2 60932 53.1584 48.8865 0000825 86.7113 273.4000 15.69711841 97711
Epoch: May 7, 2026 • Age: 9 hours

Current Status

Altitude 368.8 km
Velocity 7.69 km/s
Sub-Earth Point -28.91°S, 37.26°E
Launch Date Aug 31, 2024
Age 1.6 years
Type internet

Technical Details

Classification Payload
Mass 960.00 kg
Dry Mass 910.00 kg
Total Mass 960.00 kg
Length 0.30 m
Diameter 4.10 m
Span 29.00 m
Shape Box + pan
Manufacturer SPXS
Bus Type Starlink V2MD
Phase Status In Orbit
Owner/State SPXS/US

Most Searched